Location: *
(49.3500°N, 12.6000°E)
Time: 05:16:46
(UTC+00:00)

ATLAS CENTAUR R/B - Pass Details

Date: 18 October 2019
Orbit: 456 x 692 km, 64.6° (Epoch: 31 October)

Event Time Altitude Azimuth Distance (km) Brightness Sun altitude
Rises 19:54:32 0° 322° (NW) 2,960 5.9 -35.6°
Reaches altitude 10° 19:57:03 10° 331° (NNW) 2,010 4.8 -35.9°
Enters shadow 19:57:49 14° 335° (NNW) 1,737 4.4 -36.0°
